Regional Weather Roundup
Issued by NWS

Home | Current Version | Previous Version | Graphics & Text | Print | Product List | Glossary On
Versions: 1 2 3 4 5 6 7 8 9 10 11 12 13 14 15 16 17 18 19 20 21 22 23 24 25 26 27 28
000
ASUS45 KCYS 250310
RWRWY

WYOMING REGIONAL WEATHER ROUNDUP
NATIONAL WEATHER SERVICE CHEYENNE WY
900 PM MDT SUN SEP 24 2017

NOTE:  "FAIR" INDICATES FEW OR NO CLOUDS BELOW 12,000 FEET
WITH NO SIGNIFICANT WEATHER AND/OR OBSTRUCTIONS TO VISIBILITY.

WYZ001-250400-
YELLOWSTONE NATIONAL PARK

CITY           SKY/WX    TMP DP  RH WIND       PRES   REMARKS
LK YELLOWSTONE NOT AVBL
W YELLOWSTONE  NOT AVBL

$$
WYZ002>013-054>058-071-098>099-250400-
NORTHERN WYOMING

CITY           SKY/WX    TMP DP  RH WIND       PRES   REMARKS
JACKSON        CLOUDY    37  35  92 S5        30.07S WCI  33
CODY           CLOUDY    41  36  82 N5        30.10F
GREYBULL       MOCLDY    46  44  93 S6        30.08F
WORLAND        CLOUDY    44  43  96 S5        30.10R
SHERIDAN       CLOUDY    45  40  82 CALM      30.11F
BUFFALO        CLOUDY    42  36  79 SE3       30.14R
GILLETTE       CLOUDY    42  40  92 N5        30.12R
HULETT         CLOUDY    41  37  87 NE5       30.14S
NEWCASTLE      CLOUDY    43  43 100 S7        30.10S

$$
WYZ014>020-022>026-101>103-250400-
CENTRAL WYOMING

CITY           SKY/WX    TMP DP  RH WIND       PRES   REMARKS
BIG PINEY      CLOUDY    34  33  96 W3        30.09R
PINEDALE       DRIZZLE   34  34 100 W6        30.09R WCI  29
DUBOIS         CLOUDY    32  32 100 SE7       30.09R WCI  26
LANDER         CLOUDY    38  36  92 CALM      30.11R
RIVERTON       CLOUDY    39  38  96 SW3       30.13R
CASPER         CLOUDY    38  36  92 NE9       30.13R WCI  31
DOUGLAS        RAIN      41  39  93 N8        30.11R

$$
WYZ021-027>030-104>119-250400-
SOUTHERN WYOMING

CITY           SKY/WX    TMP DP  RH WIND       PRES   REMARKS
EVANSTON       SNOW      33  33 100 SW10      30.10R VSB 1/4 WCI  25
FORT BRIDGER   LGT RAIN  35  35 100 W12       30.11R WCI  27
ROCK SPRINGS   CLOUDY    34  33  96 NE14      30.07R WCI  25
DIXON          FAIR      38  36  92 NE3       30.11R
RAWLINS        CLOUDY    35  33  92 NE6       30.10R WCI  30
SARATOGA       CLOUDY    36  36 100 NW10G18   30.11R WCI  28
LARAMIE        MIX PCPN  32  32 100 N5        30.10R WCI  27
CHEYENNE       LGT RAIN  42  41  96 NE9       30.05R VSB 1
TORRINGTON     CLOUDY    46  45  96 NE12      30.06R
PINE BLUFFS    CLOUDY    45  45 100 NE7       30.05S FOG

$$




USA.gov is the U.S. government's official web portal to all federal, state and local government web resources and services.